Regional Weather Roundup
Issued by NWS Bismarck, ND

Home | Current Version | Previous Version | Text Only | Print | Product List | Glossary On
Versions: 1 2 3 4 5 6 7 8 9 10 11 12 13 14 15 16 17 18 19 20 21 22 23 24 25 26 27 28 29 30 31 32 33 34 35 36 37 38 39 40 41 42 43 44 45 46 47 48 49 50
196
ASUS43 KBIS 270210
RWRBIS

NWR BROADCAST TEXT
NATIONAL WEATHER SERVICE BISMARCK ND
900 PM CDT THU MAY 26 2016

NOTE: "FAIR" INDICATES FEW OR NO CLOUDS BELOW 12,000 FEET WITH NO
SIGNIFICANT WEATHER AND/OR OBSTRUCTIONS TO VISIBILITY.


CITY           SKY/WX    TMP DP  RH WIND       PRES   REMARKS
WILLISTON      CLOUDY    58  48  69 NE8       29.82R
MINOT          CLOUDY    57  51  80 W6        29.80F
MINOT AFB      CLOUDY    60  55  83 N8        29.79F
BISMARCK       CLEAR     65  48  54 N7        29.78R
DICKINSON      CLEAR     56  42  59 W8        29.81R
GARRISON         N/A     56  50  80 N10       29.79S
HETTINGER ARPT CLEAR     56  43  61 NW8       29.83S
JAMESTOWN      CLOUDY    66  55  67 N12       29.78R
BEACH          FAIR      55  50  82 W6        29.86R
CARRINGTON     FAIR      61  54  77 NE9       29.83R
HAZEN          CLOUDY    59  50  72 N5        29.81S
LINTON         FAIR      66  54  63 E3          N/A
MANDAN         FAIR      59  48  67 N7        29.80R
OAKES            N/A    N/A N/A N/A MISG        N/A
RUGBY          FAIR      55  54  94 N8        29.77
STANLEY        FAIR      57  55  94 NE6       29.85
WATFORD CITY   MOCLDY    55  50  82 NE8       29.83R
$$

CITY           SKY/WX    TMP DP  RH WIND       PRES   REMARKS
GRAND FORKS    PTCLDY    63  55  75 NW6       29.78R
GRAND FORKS AF CLEAR     63  54  72 NW2       29.79R
DEVILS LAKE    LGT RAIN  59  54  83 W6        29.79R
FARGO          PTCLDY    69  56  62 CALM      29.76R
CANDO          FAIR      57  54  88 NW3       29.79F
CAVALIER       FAIR      61  55  82 NW12      29.73R
GRAFTON        FAIR      63  55  77 NW12      29.77R
GWINNER        MOCLDY    72  55  56 SW3       29.76F
LANGDON        FAIR      57  55  94 NW14      29.75S
ROLLA          FAIR      55  52  88 N8        29.78F
WALHALLA       FAIR      59  59 100 NW9       29.74R
$$

CITY           SKY/WX    TMP DP  RH WIND       PRES   REMARKS
ABERDEEN       LGT RAIN  74  55  51 SW6       29.77S
MOBRIDGE       PTCLDY    71  49  45 NW3       29.76R
BUFFALO          N/A     59  43  55 N10       29.79R
RAPID CITY     MOCLDY    60  49  66 N5        29.83R
GLASGOW        CLOUDY    58  51  78 NE13      29.83R
SIDNEY         LGT RAIN  61  50  67 N12       29.80R
WOLF POINT     CLOUDY    62  52  69 NE17      29.82R
GLENDIVE       CLOUDY    59  50  72 W6        29.84S
MILES CITY     PTCLDY    61  46  57 NW12      29.83S
BAKER          CLEAR     54  44  69 W7        29.84R
$$

CITY           SKY/WX    TMP DP  RH WIND       PRES   REMARKS
BILLINGS       CLOUDY    58  44  60 W10       29.90S
GREAT FALLS    CLOUDY    57  45  64 NE7       29.90F
REGINA         LGT RAIN  55  50  82 SE8       29.87S
ESTEVAN        CLOUDY    54  54 100 W3        29.83S
$$





USA.gov is the U.S. government's official web portal to all federal, state and local government web resources and services.